Probability
0 0 0 0 0 0 0 0 0 0 0 0 0 0 0 0 0 0 0 0 0 0 0 0 0 0 0 0 0 0 0 0 0 0 0 0 0 0 0 0 0 0 0 0
0 0 0 0 0 0 0 0 0 0 0 0 0 0 0 0 0 0 0 0 0 0 0 0 0 0 0 0 0 0 0 0 0 0 0 0 0 0 0 0 0 0 0 0
0 0 0 0 0 0 0 0 0 0 0 0 0 0 0 0 0 0 0 0 0 0 0 0 0 0 0 0 0 0 0 0 0 0 0 0 0 0 0 0 0 0 0 0
0 0 0 0 0 0 0 0 0 0 0 0 0 0 0 0 0 0 0 0 0 0 0 0 0 0 0 0 0 0 0 0 0 0 0 0 0 0 0 0 0 0 0 0
0 0 0 0 0 0 0 0 0 0 0 0 0 0 0 0 0 0 0 0 0 0 0 0 0 0 0 0 0 0 0 0 0 0 0 0 0 0 0 0 0 0 0 0
0 0 0 0 0 0 0 0 0 0 0 0 0 0 0 0 0 0 0 0 0 0 0 0 0 0 0 0 0 0 0 0 0 0 0 0 0 0 0 0 0 0 0 0
0 0 0 0 0 0 0 0 0 0 0 0 0 0 0 0 0 0 0 0 0 0 0 0 0 0 0 0 0 0 0 0 0 0 0 0 0 0 0 0 0 0 0 0
0 0 0 0 0 0 0 0 0 0 0 0 0 0 0 0 0 0 0 0 0 0 0 0 0 0 0 0 0 0 0 0 0 0 0 0 0 0 0 0 0 0 0 0
0 0 0 0 0 0 0 0 0 0 0 0 0 0 0 0 0 0 0 0 0 0 0 0 0 0 0 0 0 0 0 0 0 0 0 0 0 0 0 0 0 0 0 0
0 0 0 0 0 0 0 0 0 0 0 0 0 0 0 0 0 0 0 0 0 0 0 0 0 0 0 0 0 0 0 0 0 0 0 0 0 0 0 0 0 0 0 0
0 0 0 0 0 0 0 0 0 0 0 0 0 0 0 0 0 0 0 0 0 0 0 0 0 0 0 0 0 0 0 0 0 0 0 0 0 0 0 0 0 0 0 0
0 0 0 0 0 0 0 0 0 0 0 0 0 0 0 0 0 0 0 0 0 0 0 0 0 0 0 0 0 0 0 0 0 0 0 0 0 0 0 0 0 0 0 0
0 0 0 0 0 0 0 0 0 0 0 0 0 0 0 0 0 0 0 0 0 0 0 0 0 0 0 0 0 0 0 0 0 0 0 0 0 0 0 0 0 0 0 0
0 0 0 0 0 0 0 0 0 0 0 0 0 0 0 0 0 0 0 0 0 0 0 0 0 0 0 0 0 0 0 0 0 0 0 0 0 0 0 0 0 0 0 0
0 0 0 0 0 0 0 0 0 0 0 0 0 0 0 0 0 0 0 0 0 0 0 0 0 0 0 0 0 0 0 0 0 0 0 0 0 0 0 0 0 0 0 0
0 0 0 0 0 0 0 0 0 0 0 0 0 0 0 0 0 0 0 0 0 0 0 0 0 0 0 0 0 0 0 0 0 0 0 0 0 0 0 0 0 0 0 0
0 0 0 0 0 0 0 0 0 0 0 0 0 0 0 0 0 0 0 0 0 0 0 0 0 0 0 0 0 0 0 0 0 0 0 0 0 0 0 0 0 0 0 0
0 0 0 0 0 0 0 0 0 0 0 0 0 0 0 0 0 0 0 0 0 0 0 0 0 0 0 0 0 0 0 0 0 0 0 0 0 0 0 0 0 0 0 0
0 0 0 0 0 0 0 0 0 0 0 0 0 0 0 0 0 0 0 0 0 0 0 0 0 0 0 0 0 0 0 0 0 0 0 0 0 0 0 0 0 0 0 0
0 0 0 0 0 0 0 0 0 0 0 0 0 0 0 0 0 0 0 0 0 0 0 0 0 0 0 0 0 0 0 0 0 0 0 0 0 0 0 0 0 0 0 0
0 0 0 0 0 0 0 0 0 0 0 0 0 0 0 0 0 0 0 0 0 0 0 0 0 0 0 0 0 0 0 0 0 0 0 0 0 0 0 0 0 0 0 0
0 0 0 0 0 0 0 0 0 0 0 0 0 0 0 0 0 0 0 0 0 0 0 0 0 0 0 0 0 0 0 0 0 0 0 0 0 0 0 0 0 0 0 0
0 0 0 0 0 0 0 0 0 0 0 0 0 0 0 0 0 0 0 0 0 0 0 0 0 0 0 0 0 0 0 0 0 0 0 0 0 0 0 0 0 0 0 0
0 0 0 0 0 0 0 0 0 0 0 0 0 0 0 0 0 0 0 0 0 0 0 0 0 0 0 0 0 0 0 0 0 0 0 0 0 0 0 0 0 0 0 0
0 0 0 0 0 0 0 0 0 0 0 0 0 0 0 0 0 0 0 0 0 0 0 0 0 0 0 0 0 0 0 0 0 0 0 0 0 0 0 0 0 0 0 0
0 0 0 0 0 0 0 0 0 0 0 0 0 0 0 0 0 0 0 0 0 0 0 0 0 0 0 0 0 0 0 0 0 0 0 0 0 0 0 0 0 0 0 0
Wind_Speed
3 4 9 14 14 7 6 6 6 7 3 2 6 7 7 4 4 5 5 5 5 6 5 7 9 9 10 12 14 13 14 11 8 6 6 7 8 8 9 10 13 13 12 12
3 8 12 4 4 4 4 4 6 6 2 4 5 7 3 3 2 3 5 5 5 5 6 8 9 10 11 12 12 13 13 12 11 7 5 5 6 7 7 8 11 13 13 12
13 6 5 6 5 6 7 8 9 7 3 2 3 6 3 2 4 6 5 5 4 5 5 6 8 9 9 11 11 11 12 13 12 9 7 6 6 5 6 8 8 10 11 11
8 4 4 6 8 10 9 9 8 6 3 5 1 6 5 4 3 3 3 3 4 4 4 5 6 7 8 8 8 10 11 12 11 9 11 12 10 7 5 4 4 7 9 10
8 5 7 9 9 11 7 3 5 4 5 3 2 5 7 3 5 6 5 4 4 3 4 4 5 5 6 6 7 8 10 11 10 10 10 11 10 6 3 4 6 6 6 8
5 4 7 8 3 7 6 7 6 5 3 5 8 8 9 7 7 8 8 7 6 5 4 4 4 4 5 5 6 7 9 10 8 9 9 10 9 7 7 7 6 5 4 4
4 5 5 5 5 3 6 6 2 1 2 8 4 6 10 3 2 10 15 12 8 6 5 5 5 4 5 5 6 6 8 8 7 8 8 7 7 7 7 5 5 4 4 4
7 7 9 8 9 9 8 10 9 9 7 5 3 9 6 1 1 7 11 11 9 7 6 6 5 5 4 5 5 5 6 6 6 6 6 5 5 4 3 3 3 3 2 3
10 7 1 4 3 11 8 6 6 6 2 2 7 7 4 2 3 7 10 10 9 8 7 7 6 5 5 5 4 5 5 5 5 4 4 4 4 4 3 3 2 2 2 3
9 6 3 3 4 1 6 8 6 6 6 6 7 6 6 8 9 10 12 12 11 9 8 7 6 6 5 4 4 4 4 4 3 3 3 2 3 3 3 3 4 4 4 5
7 7 3 3 9 11 7 5 6 6 6 7 6 9 5 10 15 18 17 15 13 11 10 8 7 6 5 4 3 3 3 3 2 2 2 3 3 3 3 3 4 4 5 6
7 5 5 7 4 3 6 9 10 9 7 6 5 8 1 4 11 14 14 12 10 10 9 8 7 6 5 5 3 3 2 2 2 2 2 2 2 3 3 4 4 5 5 6
10 7 3 2 2 3 5 6 7 5 6 7 7 9 1 2 7 10 11 11 11 10 9 8 7 7 6 5 4 3 2 2 1 1 2 2 3 3 4 4 5 6 6 7
7 8 10 13 8 9 7 7 8 8 7 8 11 8 4 4 7 10 11 12 11 11 11 10 8 7 6 5 4 4 2 2 2 2 2 3 3 4 4 5 5 6 7 7
7 8 8 6 2 5 7 10 12 13 12 13 11 11 10 12 12 11 11 10 10 10 11 11 10 8 6 5 4 4 3 2 2 3 3 3 3 3 4 5 6 7 8 8
6 6 6 6 3 3 5 9 12 13 10 10 7 10 4 6 5 7 9 11 12 12 12 11 10 9 8 7 6 5 4 3 3 3 2 2 3 4 5 7 8 9 9 10
6 7 7 5 3 2 12 14 13 9 8 9 14 11 5 5 9 12 12 13 13 12 11 11 10 9 8 7 6 6 4 3 3 2 2 2 3 4 6 7 8 9 10 11
8 7 4 5 6 13 9 1 9 11 9 9 6 4 7 9 6 5 7 12 11 11 11 10 9 8 6 6 5 5 5 4 3 2 1 1 2 4 6 7 9 10 10 10
2 7 5 6 7 7 7 3 7 8 8 9 10 7 4 4 4 2 5 8 10 10 9 9 8 8 7 7 6 6 4 3 2 1 1 0 2 4 6 8 10 9 10 10
2 3 6 5 6 10 7 3 3 6 6 6 9 9 8 9 4 7 7 8 8 7 7 8 7 7 8 6 6 6 4 3 3 2 0 1 2 3 6 8 10 9 9 11
5 4 7 7 8 9 4 4 6 7 9 3 7 7 11 10 7 4 8 8 8 8 7 8 8 7 7 7 7 5 4 4 2 2 0 1 3 5 7 7 8 8 10 10
11 9 8 6 7 12 8 9 11 8 3 5 6 8 10 8 4 5 7 9 9 8 7 8 8 7 6 8 7 6 5 3 3 2 1 3 4 6 6 6 8 8 8 10
8 9 8 11 8 1 9 9 6 5 6 7 7 7 9 7 6 7 7 8 9 9 8 7 8 7 6 6 6 6 4 3 3 1 2 4 5 6 6 6 8 7 6 7
5 2 4 4 5 2 5 3 3 5 6 6 7 7 9 8 8 9 8 8 8 9 9 8 9 9 8 7 6 5 4 4 3 2 4 5 5 5 5 5 6 6 6 7
8 8 5 4 3 2 6 9 9 7 6 5 5 6 9 9 9 9 9 9 9 9 8 9 10 10 9 8 6 5 4 4 3 3 4 4 5 5 5 6 6 8 8 10
8 11 10 8 9 8 8 9 10 9 9 10 9 7 7 10 10 9 9 9 8 9 8 8 9 8 8 8 6 5 4 4 3 3 4 3 4 4 5 6 8 13 15 19
Wind_Direction
122 131 203 207 199 193 174 182 223 246 253 214 238 256 285 345 65 99 102 86 71 54 24 20 19 18 31 38 44 46 50 43 52 62 66 66 60 51 49 46 41 41 39 39
101 231 226 189 183 202 186 206 241 273 260 216 251 258 273 358 38 110 121 106 90 74 43 33 30 31 36 41 44 48 49 48 50 58 67 77 83 63 58 50 46 41 41 39
192 217 190 160 167 187 211 211 225 238 320 310 288 282 218 95 70 67 79 91 88 90 70 48 42 36 41 44 43 54 53 53 51 56 73 74 64 56 44 38 40 37 42 44
232 234 148 171 194 184 229 215 211 216 227 272 233 281 260 166 126 108 110 106 99 85 76 66 57 51 47 43 45 57 60 59 53 57 71 75 75 70 49 41 40 39 42 43
227 200 181 200 206 181 210 168 172 184 191 251 238 243 267 157 189 190 174 159 143 123 106 89 74 69 59 51 56 60 67 63 57 62 71 79 80 79 68 52 45 38 35 38
237 214 195 206 187 169 136 86 69 57 94 248 208 205 261 212 199 174 175 177 170 155 132 109 91 83 73 62 63 66 74 69 62 68 71 79 83 78 66 51 41 30 22 26
246 234 210 156 120 130 138 119 100 301 247 247 203 211 247 205 175 172 174 176 175 168 157 145 128 109 96 84 77 75 81 76 68 71 71 74 79 75 69 58 43 30 17 8
194 242 205 185 171 167 182 162 174 198 218 257 213 230 252 37 285 164 159 162 165 171 173 167 157 142 125 110 99 92 88 84 75 73 72 69 69 69 65 55 44 27 8 345
187 231 179 183 169 144 156 201 166 127 113 270 252 261 276 96 108 140 152 163 176 181 180 176 170 160 151 137 127 116 105 94 83 78 73 64 57 54 43 27 21 3 345 334
168 205 201 158 105 44 160 152 131 155 186 237 266 249 231 190 188 176 178 183 188 185 182 179 176 172 166 156 141 122 111 106 93 79 68 64 46 34 20 10 358 347 338 338
169 177 179 168 192 182 151 164 169 159 171 180 248 257 227 193 182 184 190 190 187 185 183 182 181 178 169 158 146 133 118 106 89 73 61 46 25 14 8 360 347 339 334 333
178 154 200 226 223 195 186 182 163 175 208 199 217 261 330 200 182 184 187 188 185 183 181 179 177 173 170 169 164 153 137 120 104 86 69 43 19 11 6 353 343 340 333 331
154 152 169 293 220 200 214 208 196 167 159 183 202 256 355 120 162 180 183 183 181 179 178 177 176 177 179 179 175 165 152 140 112 89 64 34 19 13 1 350 346 344 336 331
152 171 193 203 200 177 193 201 185 166 195 211 220 229 204 186 182 187 188 185 181 180 180 179 181 182 182 178 172 164 151 131 113 84 61 37 23 14 2 355 351 344 337 331
157 204 218 228 176 166 193 199 192 198 206 214 227 223 217 199 199 194 186 178 176 180 183 183 182 181 178 172 167 158 146 128 106 81 60 42 27 16 4 353 344 336 333 329
178 201 192 221 203 193 244 233 206 212 218 227 243 248 208 187 166 173 181 180 185 188 187 182 178 176 176 173 168 158 150 135 106 90 72 40 18 3 351 341 335 330 326 323
179 176 189 212 128 128 244 225 200 200 194 188 223 235 158 176 193 196 190 188 192 188 182 179 178 176 174 172 165 163 156 136 120 108 79 31 11 349 337 332 328 324 321 317
177 179 190 147 143 221 238 166 190 201 211 200 210 202 184 199 198 197 185 186 190 182 178 177 172 169 163 154 146 141 138 138 136 132 125 30 357 335 328 324 318 315 313 311
180 165 157 166 209 256 287 213 159 175 235 210 212 218 167 119 84 274 210 189 185 179 173 171 168 161 154 152 148 142 146 145 155 178 191 10 344 323 318 312 310 311 309 305
68 149 166 170 194 226 241 172 154 112 260 230 199 203 158 138 178 238 197 180 174 166 160 158 149 143 152 154 145 152 164 172 195 195 215 344 328 309 304 304 305 304 301 297
141 168 200 199 221 248 225 157 128 164 236 209 180 176 164 184 201 193 164 171 172 168 163 154 152 160 164 153 150 166 177 196 174 128 87 313 317 306 296 293 294 296 296 297
170 174 188 170 211 242 163 151 182 203 173 160 168 173 180 199 181 162 168 175 174 171 165 160 161 164 155 154 158 175 191 164 131 129 288 299 298 295 292 286 289 289 291 295
203 189 183 193 213 246 167 185 197 166 171 181 180 188 185 189 196 188 187 187 185 180 176 170 167 163 159 160 162 179 171 141 138 159 277 282 282 277 277 280 289 291 286 288
236 187 169 226 256 226 221 243 214 195 200 195 191 185 180 193 200 198 197 194 192 187 181 171 167 175 181 172 168 164 151 142 145 241 271 276 276 280 278 279 282 282 284 286
204 167 168 220 251 244 249 232 224 214 215 212 207 198 197 201 208 202 202 202 198 191 180 175 183 188 183 168 167 160 155 150 188 241 264 275 278 278 285 282 272 279 267 269
184 168 166 204 201 190 219 222 210 206 216 214 209 217 213 204 214 210 210 206 195 186 175 177 182 179 169 165 169 166 162 165 190 240 258 268 279 281 286 294 297 295 296 299